Time,TemperatureF,DewpointF,PressureIn,WindDirection,WindDirectionDegrees,WindSpeedMPH,WindSpeedGustMPH,Humidity,HourlyPrecipIn,Conditions,Clouds,dailyrainin,SoftwareType,DateUTC
2013-08-29 00:00:00,70.9,68.5,29.89,ENE,60,0.0,6.0,92,0.04,,,0.34,Wunderground v.1.13,2013-08-29 04:00:00,
2013-08-29 00:30:00,70.9,69.1,29.88,ENE,60,1.0,6.0,94,0.00,,,0.34,Wunderground v.1.13,2013-08-29 04:30:00,
2013-08-29 01:00:00,70.3,68.8,29.88,ENE,60,3.0,6.0,95,0.00,,,0.00,Wunderground v.1.13,2013-08-29 05:00:00,
2013-08-29 01:30:00,69.4,67.6,29.89,ENE,59,2.0,6.0,94,0.00,,,0.00,Wunderground v.1.13,2013-08-29 05:30:00,
2013-08-29 02:00:00,67.9,65.8,29.90,NE,48,4.0,4.0,93,0.00,,,0.00,Wunderground v.1.13,2013-08-29 06:00:00,
2013-08-29 02:30:00,66.4,64.3,29.90,NE,48,2.0,2.0,93,0.00,,,0.00,Wunderground v.1.13,2013-08-29 06:30:00,
2013-08-29 03:00:00,65.0,62.9,29.90,NE,48,2.0,2.0,93,0.00,,,0.00,Wunderground v.1.13,2013-08-29 07:00:00,
2013-08-29 03:30:00,64.5,62.7,29.90,NE,48,2.0,6.0,94,0.00,,,0.00,Wunderground v.1.13,2013-08-29 07:30:00,
2013-08-29 04:00:00,64.5,62.7,29.91,NE,48,2.0,2.0,94,0.00,,,0.00,Wunderground v.1.13,2013-08-29 08:00:00,
2013-08-29 04:31:00,64.3,62.5,29.91,NE,40,3.0,6.0,94,0.00,,,0.00,Wunderground v.1.13,2013-08-29 08:31:00,
2013-08-29 05:00:00,64.2,62.1,29.92,NE,37,3.0,6.0,93,0.00,,,0.00,Wunderground v.1.13,2013-08-29 09:00:00,
2013-08-29 05:30:00,64.2,62.1,29.92,NE,37,1.0,6.0,93,0.00,,,0.00,Wunderground v.1.13,2013-08-29 09:30:00,
2013-08-29 06:00:00,64.2,62.1,29.92,NE,37,1.0,6.0,93,0.00,,,0.00,Wunderground v.1.13,2013-08-29 10:00:00,
2013-08-29 06:30:00,64.3,62.2,29.94,NE,37,0.0,6.0,93,0.00,,,0.00,Wunderground v.1.13,2013-08-29 10:30:00,
2013-08-29 07:01:00,64.2,62.1,29.94,NE,37,3.0,3.0,93,0.00,,,0.00,Wunderground v.1.13,2013-08-29 11:01:00,
2013-08-29 07:30:00,64.3,62.2,29.95,NE,37,1.0,6.0,93,0.00,,,0.00,Wunderground v.1.13,2013-08-29 11:30:00,
2013-08-29 08:00:00,64.8,62.4,29.97,NE,37,2.0,2.0,92,0.00,,,0.00,Wunderground v.1.13,2013-08-29 12:00:00,
2013-08-29 08:30:00,65.0,62.6,29.97,NE,37,1.0,6.0,92,0.00,,,0.00,Wunderground v.1.13,2013-08-29 12:30:00,
2013-08-29 09:00:00,65.3,62.9,29.97,NE,37,1.0,6.0,92,0.00,,,0.00,Wunderground v.1.13,2013-08-29 13:00:00,
2013-08-29 09:31:00,65.3,62.6,29.98,NE,37,3.0,3.0,91,0.00,,,0.00,Wunderground v.1.13,2013-08-29 13:31:00,
2013-08-29 10:00:00,65.8,63.1,29.98,NE,37,2.0,2.0,91,0.00,,,0.00,Wunderground v.1.13,2013-08-29 14:00:00,
2013-08-29 10:30:00,66.1,63.1,29.99,NE,37,1.0,6.0,90,0.00,,,0.00,Wunderground v.1.13,2013-08-29 14:30:00,
2013-08-29 11:00:00,66.3,63.0,29.98,NE,36,3.0,3.0,89,0.00,,,0.00,Wunderground v.1.13,2013-08-29 15:00:00,
2013-08-29 11:30:00,67.1,63.7,29.99,NE,34,1.0,1.0,89,0.00,,,0.00,Wunderground v.1.13,2013-08-29 15:30:00,
2013-08-29 12:01:00,68.9,64.2,29.99,NE,38,1.0,1.0,85,0.00,,,0.00,Wunderground v.1.13,2013-08-29 16:01:00,
2013-08-29 12:30:00,70.1,64.7,29.98,NE,38,2.0,6.0,83,0.00,,,0.00,Wunderground v.1.13,2013-08-29 16:30:00,
2013-08-29 13:00:00,72.5,64.9,29.98,NE,38,1.0,6.0,77,0.00,,,0.00,Wunderground v.1.13,2013-08-29 17:00:00,
2013-08-29 13:30:00,72.8,65.5,29.97,NE,38,1.0,1.0,78,0.00,,,0.00,Wunderground v.1.13,2013-08-29 17:30:00,
2013-08-29 14:00:00,74.6,65.8,29.96,NE,38,1.0,6.0,74,0.00,,,0.00,Wunderground v.1.13,2013-08-29 18:00:00,
2013-08-29 14:31:00,75.3,65.6,29.96,NE,38,0.0,6.0,72,0.00,,,0.00,Wunderground v.1.13,2013-08-29 18:31:00,
2013-08-29 15:00:00,76.8,66.3,29.95,NE,38,1.0,6.0,70,0.00,,,0.00,Wunderground v.1.13,2013-08-29 19:00:00,
2013-08-29 15:30:00,77.4,66.4,29.95,NE,38,2.0,2.0,69,0.00,,,0.00,Wunderground v.1.13,2013-08-29 19:30:00,
2013-08-29 16:00:00,77.7,65.9,29.94,NE,38,3.0,3.0,67,0.00,,,0.00,Wunderground v.1.13,2013-08-29 20:00:00,
2013-08-29 16:30:00,78.3,66.4,29.93,NNE,26,1.0,6.0,67,0.00,,,0.00,Wunderground v.1.13,2013-08-29 20:30:00,
2013-08-29 17:01:00,78.6,65.4,29.92,NE,36,1.0,1.0,64,0.00,,,0.00,Wunderground v.1.13,2013-08-29 21:01:00,
2013-08-29 17:30:00,78.6,66.3,29.92,NE,36,0.0,6.0,66,0.00,,,0.00,Wunderground v.1.13,2013-08-29 21:30:00,
2013-08-29 18:00:00,78.6,66.3,29.92,NE,36,0.0,6.0,66,0.00,,,0.00,Wunderground v.1.13,2013-08-29 22:00:00,
2013-08-29 18:30:00,77.0,67.3,29.93,NE,36,0.0,6.0,72,0.00,,,0.00,Wunderground v.1.13,2013-08-29 22:30:00,
2013-08-29 19:00:00,76.5,67.2,29.92,NE,36,0.0,6.0,73,0.00,,,0.00,Wunderground v.1.13,2013-08-29 23:00:00,
2013-08-29 19:31:00,74.6,66.9,29.92,NE,36,0.0,6.0,77,0.00,,,0.00,Wunderground v.1.13,2013-08-29 23:31:00,
2013-08-29 20:01:00,72.0,66.2,29.92,NE,36,0.0,6.0,82,0.00,,,0.00,Wunderground v.1.13,2013-08-30 00:01:00,
2013-08-29 20:30:00,70.6,65.9,29.92,NE,36,0.0,6.0,85,0.00,,,0.00,Wunderground v.1.13,2013-08-30 00:30:00,
2013-08-29 21:00:00,69.8,65.8,29.93,NE,36,0.0,6.0,87,0.00,,,0.00,Wunderground v.1.13,2013-08-30 01:00:00,
2013-08-29 21:30:00,68.9,65.5,29.93,NE,36,0.0,6.0,89,0.00,,,0.00,Wunderground v.1.13,2013-08-30 01:30:00,
2013-08-29 22:01:00,68.3,65.3,29.92,NE,36,0.0,6.0,90,0.00,,,0.00,Wunderground v.1.13,2013-08-30 02:01:00,
2013-08-29 22:31:00,67.6,65.2,29.93,NE,36,0.0,6.0,92,0.00,,,0.00,Wunderground v.1.13,2013-08-30 02:31:00,
2013-08-29 23:00:00,67.3,64.9,29.93,NE,36,0.0,6.0,92,0.00,,,0.00,Wunderground v.1.13,2013-08-30 03:00:00,
2013-08-29 23:30:00,66.8,64.7,29.93,NE,36,0.0,6.0,93,0.00,,,0.00,Wunderground v.1.13,2013-08-30 03:30:00,